Location: downtown San Diego
(32.7310°N, 117.1990°W)
Time: 04:59:12
(UTC-07:00)

Cosmos 2297 Rocket - Pass Details

Date: 12 July 2018
Orbit: 841 x 842 km, 71.0° (Epoch: 21 July)

Event Time Altitude Azimuth Distance (km) Brightness Sun altitude
Rises 22:51:40 0° 354° (N) 3,400 6.3 -28.1°
Reaches altitude 10° 22:54:38 10° 8° (N) 2,462 5.2 -28.4°
Enters shadow 22:58:53 23° 58° (ENE) 1,710 3.8 -28.8°
